| time (UTC) | temp F | wind direction | speed MPH | gust MPH | rain 1hr in | rain 24hr in | rain mn in | humidity % | barometer mb |
| 20260504081555 | 40 | 239 | 0.0 | 0.0 | 0.00 | 0.00 | 0.00 | 74 | 1003.3 |
| 20260504044525 | 48 | 239 | 0.0 | 0.0 | 0.00 | 0.00 | 0.00 | 57 | 1004.2 |
| 20260504043029 | 49 | 239 | 0.0 | 0.0 | 0.00 | 0.00 | 0.00 | 55 | 1004.4 |
| 20260504041532 | 49 | 238 | 0.0 | 0.0 | 0.00 | 0.00 | 0.00 | 54 | 1004.4 |
| 20260504040024 | 50 | 238 | 0.0 | 0.0 | 0.00 | 0.00 | 0.00 | 53 | 1004.4 |
| 20260504034524 | 51 | 239 | 0.0 | 0.0 | 0.00 | 0.00 | 0.00 | 50 | 1004.4 |
| 20260504033023 | 53 | 238 | 0.0 | 0.0 | 0.00 | 0.00 | 0.00 | 47 | 1004.3 |
| 20260504031523 | 54 | 239 | 0.0 | 0.0 | 0.00 | 0.00 | 0.00 | 45 | 1004.3 |
| 20260504030022 | 55 | 238 | 0.0 | 4.0 | 0.00 | 0.00 | 0.00 | 43 | 1004.1 |
| 20260504024524 | 56 | 239 | 1.0 | 4.0 | 0.00 | 0.00 | 0.00 | 44 | 1004.0 |
| 20260504023021 | 57 | 240 | 0.0 | 0.0 | 0.00 | 0.00 | 0.00 | 42 | 1003.9 |
| 20260504021520 | 58 | 240 | 0.0 | 3.0 | 0.00 | 0.00 | 0.00 | 38 | 1003.8 |
| 20260504020021 | 59 | 240 | 2.0 | 3.0 | 0.00 | 0.00 | 0.00 | 37 | 1003.7 |
| 20260504014526 | 60 | 240 | 2.0 | 4.0 | 0.00 | 0.00 | 0.00 | 37 | 1003.8 |
| 20260504013019 | 63 | 240 | 0.0 | 0.0 | 0.00 | 0.00 | 0.00 | 32 | 1003.7 |
| 20260504011518 | 65 | 240 | 0.0 | 1.0 | 0.00 | 0.00 | 0.00 | 30 | 1003.9 |
| 20260504010017 | 65 | 240 | 1.0 | 6.0 | 0.00 | 0.00 | 0.00 | 30 | 1003.9 |
| 20260504004520 | 65 | 239 | 3.0 | 9.0 | 0.00 | 0.00 | 0.00 | 29 | 1004.0 |
| 20260504003014 | 64 | 239 | 0.0 | 2.0 | 0.00 | 0.00 | 0.00 | 31 | 1004.1 |
| 20260504001514 | 64 | 239 | 4.0 | 6.0 | 0.00 | 0.00 | 0.00 | 31 | 1004.4 |
| 20260504000013 | 65 | 238 | 6.0 | 9.0 | 0.00 | 0.00 | 0.00 | 31 | 1004.4 |
| 20260503234512 | 64 | 239 | 6.0 | 12.0 | 0.00 | 0.00 | 0.00 | 30 | 1004.6 |
| 20260503233017 | 66 | 240 | 2.0 | 12.0 | 0.00 | 0.00 | 0.00 | 29 | 1004.8 |
| 20260503231511 | 64 | 239 | 4.0 | 12.0 | 0.00 | 0.00 | 0.00 | 30 | 1004.6 |
| 20260503230011 | 64 | 239 | 11.0 | 19.0 | 0.00 | 0.00 | 0.00 | 30 | 1004.9 |
| 20260503224509 | 65 | 239 | 14.0 | 22.0 | 0.00 | 0.00 | 0.00 | 30 | 1004.9 |
| 20260503223009 | 62 | 239 | 10.0 | 26.0 | 0.00 | 0.00 | 0.00 | 35 | 1004.8 |
| 20260503221508 | 64 | 239 | 15.0 | 19.0 | 0.00 | 0.00 | 0.00 | 32 | 1004.9 |
| 20260503220007 | 67 | 239 | 14.0 | 22.0 | 0.00 | 0.00 | 0.00 | 27 | 1004.5 |
| 20260503214508 | 67 | 240 | 7.0 | 24.0 | 0.00 | 0.00 | 0.00 | 25 | 1004.4 |
| 20260503213006 | 68 | 239 | 8.0 | 26.0 | 0.00 | 0.00 | 0.00 | 23 | 1004.7 |
| 20260503211503 | 71 | 240 | 12.0 | 24.0 | 0.00 | 0.00 | 0.00 | 17 | 1004.3 |
| 20260503210002 | 71 | 239 | 13.0 | 22.0 | 0.00 | 0.00 | 0.00 | 18 | 1004.4 |
| 20260503204559 | 70 | 239 | 12.0 | 27.0 | 0.00 | 0.00 | 0.00 | 20 | 1004.8 |
| 20260503203058 | 70 | 239 | 7.0 | 26.0 | 0.00 | 0.00 | 0.00 | 22 | 1005.1 |
| 20260503201553 | 70 | 239 | 4.0 | 18.0 | 0.00 | 0.00 | 0.00 | 23 | 1005.4 |
| 20260503200056 | 69 | 239 | 9.0 | 17.0 | 0.00 | 0.00 | 0.00 | 22 | 1005.7 |
| 20260503194556 | 68 | 238 | 12.0 | 18.0 | 0.00 | 0.00 | 0.00 | 23 | 1006.0 |
| 20260503193045 | 68 | 238 | 10.0 | 19.0 | 0.00 | 0.00 | 0.00 | 24 | 1006.3 |
| 20260503191547 | 68 | 238 | 7.0 | 13.0 | 0.00 | 0.00 | 0.00 | 26 | 1006.4 |
| 20260503190041 | 67 | 238 | 6.0 | 14.0 | 0.00 | 0.00 | 0.00 | 26 | 1006.9 |
| 20260503184537 | 66 | 238 | 2.0 | 10.0 | 0.00 | 0.00 | 0.00 | 27 | 1007.1 |
| 20260503183035 | 65 | 238 | 3.0 | 10.0 | 0.00 | 0.00 | 0.00 | 28 | 1007.4 |
| 20260503181532 | 65 | 239 | 0.0 | 5.0 | 0.00 | 0.00 | 0.00 | 30 | 1007.7 |
| 20260503180029 | 65 | 238 | 1.0 | 6.0 | 0.00 | 0.00 | 0.00 | 28 | 1008.0 |
| 20260503174525 | 63 | 239 | 1.0 | 7.0 | 0.00 | 0.00 | 0.00 | 30 | 1008.2 |
| 20260503173028 | 63 | 239 | 0.0 | 9.0 | 0.00 | 0.00 | 0.00 | 32 | 1008.5 |
| 20260503171519 | 62 | 238 | 6.0 | 14.0 | 0.00 | 0.00 | 0.00 | 34 | 1008.7 |